Location: Igon
(43.1667°N, 0.2333°W)
Time: 02:07:00
(UTC+00:00)

SKYMED 3 - Pass Details

Date: 14 April 2021
Orbit: 621 x 624 km, 97.9° (Epoch: 18 May)

Event Time Altitude Azimuth Distance (km) Brightness Sun altitude
Rises 19:33:11 0° 353° (N) 2,914 8.5 -9.5°
Reaches altitude 10° 19:36:24 10° 328° (NNW) 2,001 8.1 -10.1°
Maximum altitude 19:38:31 14° 298° (WNW) 1,774 8.4 -10.4°
Drops below altitude 10° 19:40:37 10° 269° (W) 1,993 8.3 -10.8°
Sets 19:43:49 0° 243° (WSW) 2,893 8.6 -11.3°
